[Iaude] MPEC D44: 2024 DF [a=1.21,e=0.38,i=7.2,H=24.4]

mpec at cfa.harvard.edu mpec at cfa.harvard.edu
Sat Feb 17 21:57:57 EST 2024


M.P.E.C. 2024-D44                             Issued 2024 February 18, 02:56 UT

     The Minor Planet Electronic Circulars contain information on unusual
         minor planets, routine data on comets and natural satellites,
         and occasional editorial announcements.  They are published
    on behalf of Division F of the International Astronomical Union by the
          Minor Planet Center, Smithsonian Astrophysical Observatory,
                          Cambridge, MA 02138, U.S.A.
			  
             Prepared using the Tamkin Foundation Computer Network

                              MPC at CFA.HARVARD.EDU
            URL https://www.minorplanetcenter.net/    ISSN 1523-6714

                                    2024 DF                                     


Observations:
     K24D00F*1C2024 02 16.24502409 02 02.778+50 08 09.46         20.81GVED044G96
     K24D00F 1C2024 02 16.25014209 01 59.639+50 08 27.31         20.91GVED044G96
     K24D00F 1C2024 02 16.25531609 01 56.492+50 08 44.92         21.02GVED044G96
     K24D00F 1C2024 02 16.26055809 01 53.238+50 09 02.81         21.04GVED044G96
     K24D00F KC2024 02 16.29567409 01 31.311+50 10 59.33         20.6 GVED044H01
     K24D00F KC2024 02 16.30168809 01 27.624+50 11 19.29         20.5 GVED044H01
     K24D00F  C2024 02 16.30889809 01 23.186+50 11 43.32         20.7 GVED044H01
     K24D00F  C2024 02 16.31568209 01 19.033+50 12 05.75         20.7 GVED044H01
     K24D00F KC2024 02 16.46253308 59 49.693+50 19 56.89         21.20GVED044I52
     K24D00F KC2024 02 16.46525008 59 48.091+50 20 05.39         21.37GVED044I52
     K24D00F KC2024 02 16.46796208 59 46.468+50 20 13.92         21.09GVED044I52
     K24D00F KC2024 02 16.47068308 59 44.790+50 20 22.31         21.39GVED044I52
     K24D00F KC2024 02 16.97617008 54 44.52 +50 49 23.4          20.9 GVED044L01
     K24D00F KC2024 02 16.97743108 54 43.66 +50 49 27.2          20.8 GVED044L01
     K24D00F KC2024 02 16.97869208 54 42.79 +50 49 31.4          21.2 GVED044L01
     K24D00F KC2024 02 16.97995408 54 41.97 +50 49 35.9          20.9 GVED044L01
     K24D00F KC2024 02 16.98142708 54 41.04 +50 49 41.0          21.1 GVED044L01
     K24D00F KC2024 02 17.16095708 52 53.79 +51 00 05.1          21.1 GXED044858
     K24D00F KC2024 02 17.16771308 52 49.25 +51 00 30.0          20.7 GXED044858
     K24D00F KC2024 02 17.17489608 52 44.32 +51 00 55.7          20.8 GXED044858
     K24D00F KC2024 02 17.26787608 51 38.22 +51 06 13.1          21.0 GVED044H21
     K24D00F KC2024 02 17.27626308 51 32.46 +51 06 40.8          20.6 GVED044H21
     K24D00F KC2024 02 17.28036208 51 29.64 +51 06 54.2          20.6 GVED044H21
     K24D00F KC2024 02 18.09232408 42 19.41 +51 53 37.8          20.8 GVED044H21
     K24D00F KC2024 02 18.09512008 42 17.24 +51 53 47.7          20.8 GVED044H21
     K24D00F KC2024 02 18.09791608 42 15.10 +51 53 58.0          20.8 GVED044H21
     K24D00F KC2024 02 18.10071308 42 13.00 +51 54 08.4          21.1 GVED044H21
     K24D00F KC2024 02 18.10360208 42 10.80 +51 54 19.0          20.9 GVED044H21

Observer details:
858 Tebbutt Observatory, Edgewood.  Observer F. B. Zoltowski.  0.51-m f/8.1
    Schmidt-Cassegrain + CCD.
G96 Mt. Lemmon Survey.  Observers V. F. Carvajal, J. K. Hogan.  Measurers T.
    Beuden, V. F. Carvajal, D. Fay, J. B. Fazekas, D. C. Fuls, A. R. Gibbs, A.
    D. Grauer, H. Groeller, J. K. Hogan, R. A. Kowalski, S. M. Larson, G. J.
    Leonard, D. Rankin, R. L. Seaman, F. C. Shelly, K. W. Wierzchos.  1.5-m
    reflector + 10K CCD.
H01 Magdalena Ridge Observatory, Socorro.  Observers W. H. Ryan, E. V. Ryan.
    Measurer W. H. Ryan.  2.4-m f/8.9 Ritchey-Chretien + CCD.
H21 Astronomical Research Observatory, Westfield.  Observer R. Holmes.
    Measurers T. Linder, R. Holmes, L. Horn.  0.76-m f/3.0 astrograph + CCD.
I52 Steward Observatory, Mt. Lemmon Station.  Observer J. B. Fazekas.
    Measurers E. C. Beshore, D. Fay, J. B. Fazekas, D. C. Fuls, A. R. Gibbs,
    A. D. Grauer, H. Groeller, J. K. Hogan, R. A. Kowalski, S. M. Larson, G.
    J. Leonard, D. Rankin, R. L. Seaman, F. C. Shelly, K. W. Wierzchos.  1.0-m
    prime focus + CCD.
L01 Visnjan Observatory, Tican.  Observer K. Korlevic.  1.0-m f/2.9 reflector
    + CCD.

Orbital elements:
2024 DF                                                  Earth MOID = 0.0260 AU
Epoch 2024 Mar. 31.0 TT = JDT 2460400.5                 MPC                     
M 340.25207              (2000.0)            P               Q                  
n   0.73963895     Peri.  250.20216     -0.49759091     +0.86712920             
a   1.2109407      Node   349.87010     -0.74126450     -0.43834429             
e   0.3801617      Incl.    7.23204     -0.45047778     -0.23651898             
P   1.33           H   24.42          G   0.15           U   7                  
Residuals in seconds of arc
240216 G96  0.3+  0.0     240216 I52  0.2+  0.3+    240217 H21  0.2-  0.0
240216 G96  0.1+  0.2+    240216 I52  0.2-  0.2+    240217 H21  0.0   0.2-
240216 G96  0.2+  0.0     240216 L01  0.3-  0.4+    240217 H21  0.1+  0.3-
240216 G96  0.2-  0.1-    240216 L01  0.6-  0.1-    240218 H21  0.2+  0.4+
240216 H01  0.0   0.1-    240216 L01  0.9-  0.1-    240218 H21  0.1-  0.1+
240216 H01  0.1+  0.1-    240216 L01  0.8-  0.2+    240218 H21  0.2-  0.1+
240216 H01  0.0   0.0     240216 L01  0.4-  0.4+    240218 H21  0.1+  0.3+
240216 H01  0.1+  0.0     240217 858  0.4-  0.0     240218 H21  0.2+  0.3+
240216 I52  0.2-  0.0     240217 858  0.1-  0.3+
240216 I52  0.1+  0.1+    240217 858  0.6-  0.1+

Ephemeris:
2024 DF                  a,e,i = 1.21, 0.38, 7                   q = 0.7506
Date    TT    R. A. (2000) Decl.     Delta      r    Elong.  Phase     V
2024 01 19    10 18 31.6 +34 13 33   0.3036  1.2487   146.7    25.6    23.5
...
2024 02 03    10 05 02.6 +40 21 56   0.1915  1.1593   152.9    22.8    22.2
...
2024 02 11    09 38 25.0 +45 36 36   0.1404  1.1092   148.7    27.5    21.6
...
2024 02 17    08 54 32.0 +50 50 36   0.1066  1.0710   139.3    36.9    21.2
2024 02 18    08 43 22.0 +51 48 07   0.1014  1.0646   137.1    39.2    21.1
2024 02 19    08 30 33.7 +52 45 40   0.09633 1.0582   134.6    41.7    21.1
...
2024 02 25    06 23 20.5 +56 23 30   0.07042 1.0197   113.4    62.9    20.9
...
2024 03 04    02 31 01.1 +35 46 27   0.05798 0.9686    65.1   111.8    22.4
...
2024 03 19    00 14 51.7 -06 57 17   0.1190  0.8779     8.1   170.8

A. U. Tomatic                (C) Copyright 2024 MPC           M.P.E.C. 2024-D44





More information about the Iaude mailing list